KUZGTU 1 (RS47S)

Last updated on Tue Jan 14 2025 00:03:00 GMT+0000 (Coordinated Universal Time)

1 57217U 23091AV 25013.55791413 .00011038 00000+0 58141-3 0 9997 2 57217 97.5837 70.8044 0016241 112.6712 247.6239 15.15665346 85299
UTC large
Height (km)
Speed (km/s)
/
Latitude / Longitude
Inclination (degrees)
Orbital Period (minutes)
Azimuth
Elevation
Range (km)
Doppler Factor

Next 0 passes for location: London (51.5072 / 0.1276)

Sorry there are no passes over London.